Flag for Portugal Weather past 2 weeks in Ponta Delgada, Azores, Portugal

Now
68 °F

Passing clouds.


Feels Like: 68 °F
Forecast: 69 / 73 °F
Wind: 1 mph from North

Location: Ponta Delgada / Nordela Acores

Current Time: Sep 3, 2014 at 7:36:33 AM

Latest Report: Sep 3, 2014 at 7:00 AM


Visibility: N/A

Pressure: 29.86 "Hg

Humidity: 88%

Dew point: 64 °F

Location of Ponta DelgadaLocation

Historic Weather in Ponta Delgada — Graph

°F

Ponta Delgada temperature yesterday

Maximum temperature yesterday: 77 °F (at 11:30 AM)
Minimum temperature yesterday: 68 °F (at 3:30 AM)
Average temperature yesterday: 73 °F

Past Weeks' High & Low Weather Summary

 TemperatureHumidityPressure
High79 °F (Aug 19, 6:30 PM)100% (Aug 22, 9:30 PM)30.24 "Hg (Aug 22, 9:30 PM)
Low64 °F (Aug 20, 5:30 AM)61% (Aug 19, 6:30 PM)29.86 "Hg (Sep 3, 4:00 AM)
Average74 °F86%30.09 "Hg
* Reported Aug 19 6:00 AM — Sep 3 6:00 AM, Ponta Delgada, Weather by CustomWeather, © 2014

Note: Actual official high and low records may vary slightly from our data, if they occured in-between our weather recording intervals... More about our weather records

Advertising

Ponta Delgada weather history for previous 24 hours

 ConditionsComfort  
Time TempWeatherWind HumidityBarometerVisibility
6:00 AM
Sep 3
68 °FPassing clouds.1 mph88%29.86 "HgN/A
5:30 AM68 °FPassing clouds.2 mph88%29.86 "HgN/A
4:30 AM68 °FPartly cloudy.1 mph94%29.86 "HgN/A
4:00 AM70 °FRain showers. Partly cloudy.6 mph88%29.86 "HgN/A
3:30 AM72 °FPassing clouds.6 mph78%29.89 "HgN/A
3:00 AM70 °FPassing clouds.6 mph88%29.89 "HgN/A
2:30 AM70 °FPassing clouds.7 mph88%29.89 "HgN/A
2:00 AM70 °FPassing clouds.9 mph88%29.89 "HgN/A
1:30 AM70 °FPassing clouds.7 mph83%29.89 "HgN/A
1:00 AM70 °FPassing clouds.9 mph88%29.92 "HgN/A
12:30 AM70 °FPartly cloudy.16 mph88%29.92 "HgN/A
12:00 AM72 °FRain showers. Partly cloudy.9 mph83%29.92 "HgN/A
11:30 PM
Sep 2
73 °FPassing clouds.5 mph83%29.92 "HgN/A
11:00 PM73 °FPassing clouds.5 mph83%29.92 "HgN/A
10:30 PM72 °FPassing clouds.2 mph83%29.92 "HgN/A
10:00 PM73 °FPassing clouds.3 mph83%29.92 "HgN/A
9:30 PM73 °FPassing clouds.5 mph78%29.89 "HgN/A
9:00 PM73 °FPassing clouds.5 mph78%29.89 "HgN/A
8:30 PM73 °FPassing clouds.6 mph78%29.89 "HgN/A
8:00 PM73 °FPassing clouds.7 mph83%29.89 "HgN/A
7:30 PM75 °FPassing clouds.8 mph78%29.89 "HgN/A
7:00 PM75 °FPassing clouds.8 mph78%29.89 "HgN/A
6:30 PM75 °FPassing clouds.10 mph78%29.89 "HgN/A
6:00 PM75 °FPassing clouds.10 mph78%29.89 "HgN/A
5:30 PM75 °FPassing clouds.9 mph74%29.89 "HgN/A
5:00 PM77 °FPassing clouds.9 mph74%29.89 "HgN/A
4:30 PM77 °FPassing clouds.10 mph74%29.89 "HgN/A
4:00 PM77 °FPassing clouds.10 mph74%29.89 "HgN/A
3:30 PM77 °FPassing clouds.13 mph74%29.92 "HgN/A
3:00 PM77 °FScattered clouds.9 mph74%29.92 "HgN/A
2:30 PM77 °FPassing clouds.7 mph74%29.92 "HgN/A
2:00 PM77 °FScattered clouds.9 mph79%29.92 "HgN/A
1:30 PM77 °FScattered clouds.7 mph79%29.92 "HgN/A
1:00 PM77 °FScattered clouds.6 mph79%29.92 "HgN/A
12:30 PM77 °FScattered clouds.6 mph79%29.92 "HgN/A
12:00 PM77 °FPassing clouds.5 mph74%29.95 "HgN/A
11:30 AM77 °FPassing clouds.5 mph79%29.95 "HgN/A
11:00 AM75 °FPassing clouds.3 mph83%29.95 "HgN/A
10:30 AM75 °FPassing clouds.3 mph78%29.95 "HgN/A
10:00 AM73 °FPassing clouds.2 mph83%29.92 "HgN/A
9:30 AM73 °FPartly sunny.2 mph83%29.92 "HgN/A
9:00 AM73 °FPassing clouds.No wind83%29.92 "HgN/A
8:30 AM70 °FScattered clouds.1 mph88%29.92 "HgN/A
8:00 AM68 °FPassing clouds.1 mph88%29.92 "HgN/A
7:30 AM68 °FPassing clouds.1 mph88%29.92 "HgN/A
7:00 AM68 °FPassing clouds.1 mph88%29.92 "HgN/A
Weather by CustomWeather, © 2014

See weather overviewHow to use our weather pages